Погода в Наджу

Южная Корея     35°01′46″N   126°43′13″E
темп.,
°C
ветер,
м/с
пор.,
м/с
влажн.,
%
обл.,
%
осадки,
мм/ч
давл.,
гПа
погр.,
м
19 сентября, вс
вс1900:00+19ююв22880 0.0 101614
03:00+18вюв119039 0.0 101611
06:00+18всв11921 0.0 101611
09:00+22всв11740 0.0 1017359
12:00+27ссз01583 0.0 10151291
15:00+28ю125048 0.0 10131686
18:00+23зюз247742 0.1 101592
21:00+20ююв11850 0.1 101515
20 сентября, пн
пн2000:00+19вюв11880 0.0 101511
03:00+18вюв24930 0.0 101476
06:00+17вюв26910 0.0 1014176
09:00+22вюв6107310 0.0 1013872
12:00+26юв78645 0.0 10121145
15:00+26юв7866100 0.0 10101167
18:00+23юв611821 0.0 1010643
21:00+21юв411910 0.0 1010384
21 сентября, вт
вт2100:00+22юв5118662 0.0 1009482
03:00+23ююв51189100 0.7 1007563
06:00+22з4799100 13.6 1007499
09:00+21зсз129597 21.6 1008199
12:00+25зсз347045 0.1 10071141
15:00+25з446724 0.1 10071134
18:00+22зюз35830 0.0 1007157
21:00+19ю22940 0.0 100822
22 сентября, ср
ср2200:00+19ююв11950 0.0 100817
03:00+18юв22941 0.0 100820
06:00+17ю22967 2.9 100824
09:00+22ююз38877 11.9 1009448
12:00+25з587952 4.8 1008936
15:00+24зсз58668 5.4 10091342
18:00+20зсз48790 0.0 1010310
21:00+18з22842 0.0 101135
23 сентября, чт
чт2300:00+17зюз129026 0.1 101238
03:00+17з269035 0.4 1012135
06:00+18зсз278817 0.4 1013230
09:00+21сз57765 0.6 1014992
12:00+23ссз6866100 0.1 10151323
15:00+23сз676466 0.1 10151343
18:00+20сз368295 0.0 1016180
21:00+17с2290100 0.0 101829